Regional Weather Roundup
Issued by NWS

Home | Current Version | Previous Version | Graphics & Text | Print | Product List | Glossary On
Versions: 1 2 3 4 5 6 7 8 9 10 11 12 13 14 15 16 17 18 19 20 21 22 23 24 25 26 27 28 29 30 31 32 33 34 35 36 37 38 39 40 41 42 43 44 45 46 47 48 49 50
716
ASUS45 KBOU 160810
RWRCO

WEATHER ROUNDUP FOR COLORADO
NATIONAL WEATHER SERVICE DENVER/BOULDER CO
100 AM MST SAT DEC 16 2017

NOTE: "FAIR" INDICATES FEW OR NO CLOUDS BELOW 12000 FEET WITH NO
SIGNIFICANT WEATHER AND/OR OBSTRUCTIONS TO VISIBILITY.

COZ001>005-013-030-031-160900-
...NORTHWEST COLORADO...

CITY           SKY/WX    TMP DP  RH WIND       PRES   REMARKS
CRAIG          FAIR       5   1  83 CALM      29.98F
HAYDEN         FAIR      21  10  62 E14       29.98F WCI   8
MEEKER         FAIR      18   5  57 CALM      29.97F
RABBIT EARS PA FAIR      23  -2  33 W7        30.00F WCI  15
STEAMBOAT SPGS FAIR      16   8  72 CALM      29.99F
WALDEN         FAIR      27   3  36 S12       29.95F WCI  16
$$

COZ006>008-011-160900-
...WEST CENTRAL VALLEYS...

CITY           SKY/WX    TMP DP  RH WIND       PRES   REMARKS
GRAND JUNCTION FAIR      23   8  52 E6        30.02F WCI  16
MONTROSE       FAIR      19   8  62 S7        30.04F WCI  10
EAGLE          FAIR      10   6  84 E3        30.06F
RIFLE          FAIR      15   4  61 E3        30.04F
DELTA          FAIR      23   0  37 CALM      30.04F
NUCLA          FAIR      23  -6  28 SE9       30.08F WCI  13
$$

COZ017>023-064>068-160900-
...SOUTHWEST COLORADO...

CITY           SKY/WX    TMP DP  RH WIND       PRES   REMARKS
DURANGO        FAIR      17  10  74 N3        30.05F
CORTEZ         FAIR      11   0  61 CALM      30.06F
PAGOSA SPRINGS FAIR      19   8  63 CALM      30.07F
TELLURIDE      FAIR      30   2  30 SE7       30.06F WCI  23
WOLF CREEK PAS FAIR      30   0  27 SW14      30.17F WCI  20
$$

COZ009-010-012-014-032>034-037-058>063-160900-
...CENTRAL COLORADO...

CITY           SKY/WX    TMP DP  RH WIND       PRES   REMARKS
ASPEN          FAIR      19   8  62 S7        29.99F WCI  10
BUENA VISTA    FAIR      17   9  68 NW5       29.98F WCI  10
COPPER MTN     NOT AVBL
BERTHOUD PASS  FAIR      27  14  59 NW37G49   30.01F WCI   9
COTTONWOOD PAS FAIR      37   1  22 CALM      30.00F
GUNNISON       FAIR       6   2  83 CALM      30.09F
KREMMLING      FAIR       9   5  85 CALM      30.05F
LEADVILLE      FAIR      22   5  48 S5        29.99F WCI  16
MONARCH PASS   FAIR      27   0  31 W37       30.17F WCI   9
SALIDA         FAIR      31   5  33 NW5       30.04F WCI  27
SUNLIGHT       FAIR      27  -9  20 SW10G18   30.09F WCI  17
WILKERSON PASS FAIR      30   0  27 W9G17     30.05F WCI  22
$$

COZ069>075-160900-
...SAN LUIS VALLEY/SANGRE DE CRISTO MOUNTAINS...

CITY           SKY/WX    TMP DP  RH WIND       PRES   REMARKS
ALAMOSA        FAIR       3  -1  83 CALM      30.05F
DEL NORTE      FAIR      15   6  67 W9        30.05F WCI   4
LA VETA PASS   FAIR      25  -4  28 SW30        N/A  WCI   8
SAGUACHE       FAIR      19   5  53 NW14      30.06F WCI   6
$$

COZ035-036-038>040-160900-
...NORTHERN COLORADO FRONT RANGE...

CITY           SKY/WX    TMP DP  RH WIND       PRES   REMARKS
DENVER INTL AP CLOUDY    43  12  28 SW9       29.77F
DMNS CITY PARK NOT AVBL
AURORA         MOCLDY    41  11  29 S8        29.78F
FRONT RANGE AP FAIR      36  19  50 S8        29.78F
ERIE MUNI ARPT FAIR      45  10  24 S5        29.81F
BOULDER MUN AP FAIR      48  10  21 CALM      29.76F
CENTENNIAL     MOCLDY    39  15  37 S7        29.78F
BROOMFIELD     FAIR      46  10  23 W5        29.78F
FORT COLLINS   FAIR      37  19  48 CALM      29.77F
LONGMONT       FAIR      57   6  12 W6        29.77F
$$

COZ041-046-047-076>085-087-088-160900-
...PIKES PEAK/PALMER DIVIDE AND SOUTHERN FOOTHILLS...

CITY           SKY/WX    TMP DP  RH WIND       PRES   REMARKS
COLO. SPRINGS  FAIR      35   8  32 N8        29.83F WCI  29
A. F. ACADEMY  FAIR      37   7  29 N7        29.83F
SCHRIEVER AFB  FAIR      35   5  28 W3        29.83F
CHEYENNE MTN   FAIR      47  10  21 CALM      29.80F
ELLICOTT         N/A    N/A N/A N/A VRB5      29.81F
FALCON         FAIR      36   6  28 NW9       29.86S
FORT CARSON    FAIR      35  13  40 N6        29.80F WCI  30
LIMON          FAIR      17  11  77 N7        29.80F WCI   8
MONUMENT HILL  FAIR      39   9  28 SW14      29.85F
CANON CITY     FAIR      43  10  26 W18       29.83F
WALSENBURG     FAIR      43   5  21 SW13      29.85F
TRINIDAD       FAIR      38  11  32 W14       29.85F
$$

COZ042>045-048>051-090-091-160900-
...NORTHEAST COLORADO...

CITY           SKY/WX    TMP DP  RH WIND       PRES   REMARKS
GREELEY ARPT   FAIR      28  18  66 CALM      29.77F
AKRON          FAIR      41  13  31 W9        29.75F
BURLINGTON     FAIR      36  12  37 W9        29.77F
WRAY           FAIR      30  10  43 W5        29.76S WCI  25
YUMA           FAIR      32  12  43 W10       29.74F WCI  24
STERLING       FAIR      23  12  63 S3        29.76S
HOLYOKE        FAIR      32  14  47 W8        29.76S WCI  25
FORT MORGAN    FAIR      27  16  64 NW3       29.77S
$$

COZ086-089-092>099-160900-
...SOUTHEAST COLORADO...

CITY           SKY/WX    TMP DP  RH WIND       PRES   REMARKS
PUEBLO         FAIR      26  12  55 W5        29.80F WCI  20
LA JUNTA       FAIR      33  14  45 SW10      29.79F WCI  25
LAMAR          FAIR      22  14  71 CALM      29.78F
SPRINGFIELD      N/A     27  15  61 SW7       29.81F WCI  19
$$




USA.gov is the U.S. government's official web portal to all federal, state and local government web resources and services.